スコッティ彗星

377P/Scotti (2003)

English version
Home page
Updated on May 27, 2019

---------------------------------------------------------------------

・ プロフィール

符号 377P/2003 L1
発見日 2003年6月4日
発見光度 19.7等
発見者 J. V. Scotti (Kitt Peak)

・ 軌道要素

Epoch 2003 Mar. 22.0 TT = JDT 2452720.5
T 2003 Mar. 7.36981 TT                                  MPCW
q   5.0098757            (2000.0)            P               Q
n   0.05686257     Peri.  355.16323     -0.75164633     +0.64983115
a   6.6975873      Node   226.03827     -0.59975785     -0.74462638
e   0.2519880      Incl.    9.02431     -0.27444182     -0.15248290
P  17.33
From 75 observations 2002 Apr. 5-2019 Mar. 10, mean residual 0".4.

・ 星図

・ 光度変化

        m1 = 9.0 + 5 logΔ + 10.0 log r

---------------------------------------------------------------------

軌道要素はM.P.E.C. 2019-E80に掲載されたものです。
星図は StellaNavigator Ver.2.0 for Windows (アストロアーツ 編著 / アスキー出版局刊) で作成したものです。
光度グラフはComet for Windowsで作成したものです。

---------------------------------------------------------------------

Copyright(C) Seiichi Yoshida (comet@aerith.net). All rights reserved.